TimeEDT,TemperatureF,Dew PointF,Humidity,Sea Level PressureIn,VisibilityMPH,Wind Direction,Wind SpeedMPH,Gust SpeedMPH,PrecipitationIn,Events,Conditions,WindDirDegrees,DateUTC
12:54 AM,46.0,32.0,58,30.36,10.0,NNE,5.8,-,N/A,,Clear,30,2013-05-25 04:54:00
1:54 AM,44.1,32.0,63,30.36,10.0,NNE,3.5,-,N/A,,Clear,30,2013-05-25 05:54:00
2:54 AM,43.0,32.0,65,30.35,10.0,NE,4.6,-,N/A,,Clear,40,2013-05-25 06:54:00
3:54 AM,42.1,32.0,67,30.34,10.0,NNE,3.5,-,N/A,,Clear,30,2013-05-25 07:54:00
4:54 AM,39.9,34.0,79,30.32,10.0,Calm,Calm,-,N/A,,Clear,0,2013-05-25 08:54:00
5:54 AM,37.9,35.1,89,30.34,10.0,NW,3.5,-,N/A,,Clear,320,2013-05-25 09:54:00
6:54 AM,42.1,37.0,82,30.35,10.0,NE,5.8,-,N/A,,Clear,40,2013-05-25 10:54:00
7:54 AM,44.1,37.0,76,30.40,10.0,Calm,Calm,-,N/A,,Overcast,0,2013-05-25 11:54:00
8:54 AM,46.9,37.9,71,30.36,10.0,East,5.8,-,N/A,,Overcast,90,2013-05-25 12:54:00
9:54 AM,50.0,39.0,66,30.40,10.0,Calm,Calm,-,N/A,,Overcast,0,2013-05-25 13:54:00
10:54 AM,50.0,39.9,68,30.39,10.0,Calm,Calm,-,N/A,,Overcast,0,2013-05-25 14:54:00
11:54 AM,53.1,39.9,61,30.38,10.0,Calm,Calm,-,N/A,,Overcast,0,2013-05-25 15:54:00
12:54 PM,54.0,39.9,59,30.38,10.0,Calm,Calm,-,N/A,,Overcast,0,2013-05-25 16:54:00
1:54 PM,55.9,39.0,53,30.38,10.0,Calm,Calm,-,N/A,,Overcast,0,2013-05-25 17:54:00
2:54 PM,57.9,34.0,41,30.36,10.0,Calm,Calm,-,N/A,,Overcast,0,2013-05-25 18:54:00
3:54 PM,59.0,30.9,35,30.32,10.0,Calm,Calm,-,N/A,,Mostly Cloudy,0,2013-05-25 19:54:00
4:54 PM,60.1,33.1,36,30.30,10.0,Calm,Calm,-,N/A,,Overcast,0,2013-05-25 20:54:00
5:54 PM,59.0,35.1,41,30.23,10.0,East,9.2,-,N/A,,Overcast,100,2013-05-25 21:54:00
6:54 PM,57.9,33.1,39,30.30,10.0,North,5.8,-,N/A,,Overcast,350,2013-05-25 22:54:00
7:54 PM,57.0,39.0,51,30.30,10.0,NNE,5.8,-,N/A,,Overcast,30,2013-05-25 23:54:00
8:54 PM,53.1,46.0,77,30.30,10.0,North,4.6,-,0.00,Rain,Light Rain,10,2013-05-26 00:54:00
9:54 PM,51.1,48.0,89,30.32,10.0,West,4.6,-,0.00,,Overcast,260,2013-05-26 01:54:00
10:54 PM,50.0,46.9,89,30.32,10.0,West,3.5,-,N/A,,Mostly Cloudy,260,2013-05-26 02:54:00
11:54 PM,50.0,46.0,86,30.32,10.0,West,4.6,-,N/A,,Overcast,270,2013-05-26 03:54:00